GFSGL_700_temp_093.txt.gz
Temp
7 6 6 6 5 3 2 2 2 1 0 1 0 -0 0 -1 -1 -1 -1 -1 -0 -0 0 -0 -0 -0 0 0 0 -0 -0 -1 -1 -1 -1 -1 -1 -1 -1 -1 -1 -0 -1
6 6 6 6 6 6 5 3 2 2 0 0 0 -1 -1 -0 -1 -1 -1 -1 -0 -1 -1 -0 -0 0 -0 -0 -0 -0 -0 -1 -1 -1 -1 -1 -1 -1 -2 -1 -1 -1 -1
6 6 6 6 6 6 5 5 4 3 2 2 -0 -1 -0 -1 -1 -1 -1 -0 -0 -0 0 -0 -0 -0 -0 0 -0 -0 0 -0 -0 -1 -1 -1 -0 -1 -1 -1 -1 -1 -1
7 7 6 6 6 6 5 5 5 5 4 4 3 1 1 -0 -0 -0 -0 -0 0 -0 0 0 0 0 0 0 0 0 0 -0 -1 -1 -1 -1 -1 -1 -1 -2 -1 -1 -1
7 6 6 6 6 6 5 5 5 5 5 4 4 3 3 2 2 2 1 1 1 1 0 0 0 1 1 1 1 -0 -1 -1 -0 -1 -1 -1 -1 -1 -1 -2 -3 -3 -2
7 6 6 6 6 6 6 5 5 5 5 4 4 4 3 3 3 3 2 2 1 0 0 0 1 1 1 1 -0 -0 -0 -0 -1 -1 -0 -1 -1 -1 -3 -2 -2 -3 -2
6 6 6 6 6 6 5 5 5 5 5 4 4 4 3 3 3 3 2 2 0 0 0 0 -0 0 0 -0 -0 0 -0 -0 -0 -1 -1 -1 -2 -2 -2 -2 -3 -3 -3
6 6 6 6 6 6 5 5 4 4 4 4 4 3 3 3 3 2 2 1 1 0 0 -0 -0 -1 -1 -1 -1 -1 -0 -0 -1 -1 -1 -2 -2 -2 -3 -4 -4 -5 -5
5 6 6 5 6 6 5 5 5 4 3 3 3 3 3 3 3 2 1 1 0 0 0 0 -1 -0 -0 -1 0 0 -1 -1 -2 -2 -2 -3 -3 -4 -4 -5 -6 -6 -6
4 5 4 4 5 5 4 4 4 4 4 4 4 3 3 2 3 2 2 1 -0 -1 -1 -1 -1 -0 0 -0 0 -0 -0 -1 -3 -2 -4 -5 -5 -6 -6 -6 -6 -7 -7
4 4 4 4 4 4 5 5 4 4 5 4 4 4 3 3 3 2 1 -0 -1 -1 -1 -0 -0 0 -0 -0 -1 -1 -2 -2 -3 -4 -5 -6 -7 -6 -7 -7 -7 -8 -8
3 3 4 4 3 4 4 3 3 4 4 3 3 3 1 1 1 2 1 -0 -0 0 -0 0 -0 -0 -1 -1 -1 -2 -3 -5 -6 -6 -6 -7 -8 -8 -8 -8 -9 -9 -10
3 3 3 3 3 2 3 3 2 2 2 1 1 2 0 1 0 1 -0 1 0 0 0 -0 -1 -3 -3 -3 -4 -5 -6 -6 -6 -7 -7 -9 -9 -10 -9 -9 -9 -10 -11
2 2 2 2 2 2 2 2 2 1 1 0 1 0 -0 1 -0 0 -0 0 -1 -1 -3 -2 -4 -4 -6 -5 -5 -6 -7 -7 -7 -8 -9 -10 -10 -10 -10 -10 -11 -12 -12
1 1 1 1 1 1 1 1 1 0 -0 0 -0 0 -0 -0 -1 -1 -6 -4 -4 -6 -7 -6 -6 -6 -6 -6 -7 -7 -8 -8 -9 -9 -9 -9 -9 -10 -11 -12 -13 -13 -14
-0 -1 -1 -1 -0 1 -0 1 0 -0 -1 -1 -0 -1 -2 -3 -5 -5 -6 -7 -6 -6 -6 -7 -6 -7 -7 -7 -7 -8 -8 -9 -9 -10 -10 -11 -11 -12 -13 -14 -15 -16 -17
-2 -2 -2 -3 -3 -3 -1 -1 -1 -1 -1 -2 -5 -6 -6 -5 -5 -5 -5 -6 -5 -7 -7 -7 -8 -8 -8 -8 -8 -9 -9 -10 -10 -11 -12 -13 -13 -15 -15 -16 -17 -18 -19
-3 -3 -3 -3 -3 -4 -4 -4 -4 -4 -4 -4 -5 -5 -5 -6 -6 -6 -7 -7 -8 -8 -8 -8 -9 -8 -9 -9 -10 -10 -11 -11 -12 -13 -14 -15 -16 -17 -17 -18 -19 -19 -20
-4 -4 -4 -4 -4 -5 -5 -5 -5 -5 -5 -5 -6 -6 -6 -7 -8 -8 -8 -8 -8 -9 -9 -9 -9 -9 -10 -11 -12 -12 -13 -13 -14 -15 -16 -16 -17 -18 -19 -19 -20 -21 -21
-4 -5 -5 -5 -5 -6 -6 -5 -6 -6 -7 -7 -7 -8 -8 -8 -8 -9 -9 -9 -9 -9 -9 -10 -10 -11 -12 -13 -13 -13 -14 -15 -16 -16 -17 -18 -19 -19 -20 -21 -21 -21 -22
-6 -6 -6 -7 -7 -7 -7 -7 -8 -8 -8 -9 -9 -9 -9 -10 -10 -10 -10 -10 -11 -11 -11 -12 -13 -13 -14 -14 -15 -15 -16 -16 -17 -18 -19 -19 -20 -20 -21 -22 -22 -23 -23
-8 -7 -8 -8 -9 -9 -9 -9 -10 -10 -10 -10 -10 -10 -10 -10 -10 -11 -11 -12 -12 -13 -13 -13 -14 -14 -15 -15 -16 -16 -17 -18 -18 -19 -20 -21 -21 -21 -22 -23 -23 -23 -24
-10 -10 -10 -10 -10 -10 -10 -10 -11 -11 -11 -10 -10 -11 -11 -11 -11 -12 -12 -13 -13 -13 -14 -14 -15 -15 -16 -16 -17 -18 -18 -19 -20 -21 -21 -21 -22 -22 -23 -23 -23 -24 -24
-11 -11 -11 -11 -11 -11 -11 -12 -12 -11 -11 -11 -12 -12 -13 -13 -13 -13 -14 -14 -14 -14 -15 -16 -16 -17 -17 -18 -18 -19 -20 -20 -21 -21 -22 -22 -22 -23 -23 -23 -23 -24 -24
-12 -12 -12 -12 -12 -12 -12 -12 -12 -12 -12 -13 -13 -13 -14 -14 -14 -14 -15 -15 -15 -16 -16 -17 -18 -18 -19 -19 -20 -20 -20 -21 -21 -22 -22 -22 -23 -23 -23 -23 -24 -24 -24
-12 -13 -14 -14 -13 -13 -13 -13 -14 -14 -14 -14 -14 -14 -14 -15 -15 -16 -16 -17 -17 -17 -18 -18 -19 -19 -20 -20 -20 -21 -21 -22 -22 -22 -22 -23 -23 -23 -23 -23 -24 -24 -24

GFSGL_700_temp_099.txt.gz
Temp
7 6 6 6 5 4 3 1 1 0 0 -0 -0 -0 -0 -0 -0 -0 -1 -1 -2 -2 -2 -2 -2 -2 -2 -2 -2 -1 -1 -2 -1 0 -0 -0 -1 -1 -1 -1 -1 -1 -1
7 6 6 6 6 5 4 3 3 1 0 -1 -1 -1 -1 -0 -1 -1 -1 -1 -1 -2 -2 -2 -1 -2 -1 -1 -1 -1 -1 -1 -1 0 -0 -0 -1 -1 -1 -1 -1 -1 -1
7 6 6 6 6 6 5 4 3 2 2 1 -0 -0 -0 -1 -1 -1 -1 -1 -1 -1 -1 -2 -1 -1 -2 -1 -1 -1 -1 -1 -2 -1 -0 -0 -0 -1 -1 -1 -1 -1 -1
6 6 6 6 6 5 5 5 5 4 3 2 2 1 0 -0 -1 -1 -1 -1 -1 -1 -1 -1 -1 -1 -1 -1 -1 -1 -1 -2 -1 -1 -2 -1 -1 -0 -1 -1 -1 -1 -1
5 6 6 6 5 5 5 5 5 5 4 3 3 2 2 1 1 -0 -1 -1 -1 -1 -1 -1 -1 -1 -2 -2 -1 -1 -2 -2 -1 -1 -1 -1 -1 -1 -0 -1 -1 -1 -2
5 5 5 5 5 5 5 5 5 5 5 4 4 4 3 3 2 1 1 0 -0 -1 -1 -1 -1 -1 -1 -1 -1 -1 -1 -1 -1 -1 -1 -0 -0 -1 -1 -0 -1 -1 -1
4 4 4 5 5 5 5 5 5 5 5 5 4 4 4 4 3 2 1 0 0 -0 -0 -0 -1 -2 -2 -2 -2 -1 -1 -1 -1 -1 -0 -0 -1 -0 -1 -1 -1 -1 -2
2 3 3 4 4 4 4 5 5 4 4 4 4 4 4 4 3 2 1 0 0 -0 -0 -0 -1 -1 -1 -1 -2 -1 -1 -1 -1 -1 -1 -1 -1 -1 -2 -1 -1 -1 -2
4 4 3 3 3 3 3 4 4 4 4 4 4 4 4 4 3 2 1 1 1 1 1 0 -0 -1 -1 -1 -1 -1 -0 -0 -0 -1 -1 -1 -1 -1 -2 -2 -2 -2 -3
4 4 4 4 3 3 3 3 3 3 4 4 3 3 3 3 3 2 2 1 0 0 -0 -0 -1 -1 -1 -2 -1 -1 -1 -2 -2 -1 -1 -1 -2 -2 -3 -3 -4 -5 -6
3 3 4 4 4 4 4 3 2 1 2 3 2 2 2 2 2 2 2 2 -0 -1 -0 -1 -1 -0 -1 -0 -0 -1 -1 -1 -1 -1 -2 -2 -4 -5 -5 -6 -6 -6 -5
3 3 4 3 4 3 3 3 2 2 1 1 1 2 1 1 1 2 1 1 0 0 0 0 1 -0 0 -1 -1 -1 -1 -2 -2 -5 -6 -7 -6 -6 -6 -6 -6 -6 -7
3 3 3 3 3 3 2 2 2 1 1 1 1 1 1 1 1 1 1 1 1 0 -0 1 1 0 -1 -0 -2 -6 -6 -6 -6 -6 -6 -6 -6 -6 -6 -6 -8 -8 -8
2 2 2 2 1 2 2 1 1 1 1 1 1 1 1 1 1 0 1 -0 1 0 -0 -1 -1 -3 -2 -5 -6 -6 -6 -7 -6 -7 -7 -7 -7 -7 -8 -8 -9 -9 -10
-0 0 1 0 0 1 1 1 -0 1 -0 0 -0 0 -0 0 -0 -0 -0 -1 -1 -1 -1 -2 -4 -6 -6 -7 -7 -7 -7 -7 -7 -8 -9 -8 -8 -8 -9 -9 -10 -11 -11
-1 -1 -1 -1 -1 -1 -0 -1 -1 -1 -1 -1 -0 -1 -2 -2 -2 -5 -4 -5 -5 -6 -7 -6 -6 -7 -7 -7 -7 -7 -7 -8 -9 -9 -9 -9 -9 -10 -10 -11 -11 -12 -13
-2 -1 -1 -1 -2 -2 -1 -1 -1 -1 -2 -2 -2 -3 -4 -5 -5 -5 -5 -5 -6 -6 -7 -8 -8 -8 -8 -8 -8 -9 -10 -9 -9 -10 -10 -11 -11 -11 -12 -13 -13 -14 -15
-2 -2 -2 -2 -2 -2 -2 -2 -3 -3 -3 -3 -4 -6 -7 -7 -7 -7 -7 -7 -7 -7 -8 -8 -8 -8 -8 -9 -9 -9 -10 -10 -11 -11 -11 -11 -12 -13 -14 -14 -15 -16 -17
-3 -3 -3 -4 -4 -4 -4 -4 -4 -5 -5 -4 -6 -7 -8 -8 -8 -8 -8 -9 -9 -8 -8 -9 -9 -9 -10 -10 -10 -11 -11 -12 -12 -12 -13 -13 -14 -14 -15 -16 -17 -17 -18
-5 -5 -5 -5 -6 -6 -6 -6 -6 -6 -6 -7 -8 -8 -8 -9 -9 -9 -9 -9 -9 -11 -11 -10 -10 -11 -11 -11 -12 -12 -12 -13 -13 -14 -14 -15 -15 -16 -17 -18 -18 -18 -19
-7 -7 -7 -7 -7 -8 -8 -8 -8 -8 -9 -9 -9 -9 -10 -10 -10 -11 -11 -11 -11 -11 -11 -11 -12 -12 -12 -13 -13 -13 -14 -14 -14 -15 -15 -16 -17 -18 -18 -18 -19 -20 -20
-7 -8 -8 -9 -9 -9 -9 -9 -10 -10 -10 -10 -10 -11 -11 -11 -12 -11 -11 -11 -11 -12 -12 -12 -13 -13 -14 -14 -14 -14 -15 -15 -16 -16 -17 -18 -18 -19 -19 -20 -20 -20 -21
-9 -10 -10 -10 -10 -10 -11 -11 -11 -11 -11 -11 -12 -13 -13 -12 -12 -12 -12 -13 -13 -13 -13 -14 -14 -14 -15 -15 -15 -16 -16 -17 -17 -18 -18 -19 -19 -20 -20 -20 -21 -21 -22
-11 -11 -11 -11 -11 -12 -12 -12 -12 -12 -13 -14 -15 -14 -13 -13 -13 -13 -13 -14 -14 -14 -14 -15 -15 -15 -15 -16 -16 -17 -17 -18 -18 -19 -19 -19 -20 -20 -21 -21 -22 -22 -22
-12 -12 -12 -12 -13 -13 -13 -13 -13 -14 -14 -15 -14 -13 -13 -14 -14 -14 -14 -15 -15 -15 -15 -15 -16 -16 -16 -17 -18 -18 -18 -19 -19 -20 -20 -20 -21 -21 -21 -22 -22 -22 -22
-13 -13 -13 -13 -13 -14 -14 -15 -16 -15 -15 -14 -14 -14 -14 -15 -15 -15 -15 -16 -16 -16 -16 -17 -17 -17 -18 -18 -18 -19 -19 -20 -20 -20 -21 -21 -21 -21 -22 -23 -23 -23 -23

GFSGL_700_temp_102.txt.gz
Temp
6 6 6 6 6 5 4 3 3 3 3 2 1 1 1 1 1 0 1 -0 -1 -1 -1 -2 -2 -2 -3 -2 -2 -2 -2 -2 -2 -1 -2 -2 -2 -2 -2 -2 -1 -1 -1
5 6 6 6 6 5 5 4 3 3 3 3 2 2 1 0 0 -1 -1 -1 -1 -1 -2 -2 -2 -2 -2 -2 -2 -2 -2 -2 -2 -1 -1 -2 -2 -2 -2 -2 -1 -1 -1
5 6 6 6 6 5 5 4 4 3 2 2 1 1 2 1 -1 -0 -1 -1 -1 -1 -2 -2 -2 -2 -2 -2 -2 -1 -2 -2 -2 -2 -1 -1 -1 -1 -1 -1 -1 -1 -1
5 5 6 6 5 5 4 4 4 3 3 2 1 -0 0 0 -1 -0 -0 -1 -1 -1 -2 -2 -2 -2 -2 -2 -2 -1 -1 -1 -1 -2 -1 -1 -1 -1 -1 -1 -1 -1 -1
4 5 5 5 5 5 5 4 4 4 3 3 2 1 0 0 -0 -1 -1 -1 -1 -1 -1 -1 -2 -2 -2 -2 -2 -2 -2 -1 -1 -1 -1 -1 -1 -1 -1 -1 -1 -1 -1
4 5 4 4 5 5 5 4 4 4 4 4 4 3 3 2 1 0 -0 -0 0 0 0 -0 -1 -1 -2 -1 -2 -2 -1 -2 -2 -2 -1 -1 -1 -1 -2 -1 -1 -2 -1
3 3 3 4 4 4 4 4 5 4 4 4 4 4 4 3 2 1 1 1 1 0 -0 -0 -1 -1 -2 -1 -1 -1 -1 -1 -2 -2 -1 -2 -2 -2 -1 -1 -2 -1 -2
1 2 2 3 3 3 3 3 3 4 4 4 4 4 4 4 3 2 1 1 0 0 -0 -0 -1 -1 -2 -2 -2 -2 -2 -2 -3 -2 -2 -2 -2 -2 -2 -1 -1 -1 -2
2 2 1 1 2 3 3 3 3 3 3 3 4 4 4 4 3 2 1 1 1 1 1 -0 -0 -1 -1 -2 -2 -2 -3 -3 -2 -2 -2 -2 -1 -1 -2 -2 -2 -2 -2
2 2 2 2 2 3 3 4 3 3 3 2 3 3 3 3 3 2 1 0 0 1 0 -0 -1 -1 -2 -2 -2 -2 -1 -1 -1 -2 -2 -1 -2 -1 -1 -2 -2 -3 -4
3 3 3 3 3 3 3 3 3 2 3 3 2 2 2 2 2 2 2 1 -0 -1 -0 -1 -1 -1 -1 -1 -1 -2 -1 -1 -1 -1 -1 -1 -2 -2 -4 -4 -6 -6 -6
3 3 3 3 3 4 4 3 3 3 2 2 2 2 1 2 2 2 1 -0 -1 -1 -0 -0 -1 0 -1 -1 -2 -1 -1 -2 -2 -2 -3 -3 -5 -6 -6 -6 -7 -7 -7
2 2 2 3 3 3 4 3 2 2 2 1 1 1 1 1 1 1 1 1 -0 -1 -1 -1 -1 -1 -0 -1 -0 -1 -1 -3 -5 -5 -5 -7 -7 -7 -7 -7 -7 -7 -9
1 1 2 2 2 3 3 2 1 1 2 0 1 0 0 1 0 0 -0 0 -1 -1 -1 -2 -2 -2 -2 -3 -4 -5 -6 -6 -6 -7 -7 -7 -7 -7 -8 -10 -10 -10 -9
0 1 0 0 1 0 0 0 -0 -0 -1 -1 -1 -0 -1 -0 -1 -1 -2 -2 -2 -2 -2 -3 -4 -6 -6 -7 -7 -7 -7 -8 -7 -8 -8 -8 -8 -11 -10 -9 -9 -9 -10
-1 -1 -1 -0 -0 -1 -0 -0 -1 -2 -2 -1 -1 -1 -1 -2 -2 -2 -2 -3 -4 -5 -6 -6 -7 -7 -7 -8 -8 -8 -8 -8 -8 -8 -8 -9 -9 -9 -10 -10 -10 -11 -11
-2 -2 -2 -2 -1 -2 -2 -1 -2 -2 -2 -2 -3 -3 -3 -3 -5 -5 -6 -6 -6 -7 -8 -9 -9 -8 -8 -8 -9 -8 -9 -10 -10 -10 -9 -9 -10 -10 -11 -11 -12 -12 -13
-3 -3 -3 -3 -3 -3 -3 -3 -3 -3 -3 -4 -3 -4 -5 -6 -6 -7 -7 -7 -7 -7 -7 -8 -9 -9 -9 -9 -10 -11 -10 -10 -10 -10 -10 -11 -11 -12 -12 -13 -14 -14 -14
-4 -4 -4 -4 -4 -4 -5 -5 -5 -5 -5 -5 -5 -6 -6 -7 -8 -8 -8 -8 -8 -8 -8 -8 -8 -10 -11 -11 -11 -10 -10 -11 -11 -12 -12 -12 -12 -13 -14 -14 -15 -15 -16
-6 -6 -6 -6 -6 -6 -6 -7 -7 -7 -7 -7 -7 -7 -8 -8 -8 -9 -9 -9 -9 -9 -9 -10 -11 -11 -11 -11 -11 -12 -12 -12 -12 -12 -13 -13 -14 -14 -15 -15 -16 -17 -18
-8 -9 -8 -8 -8 -8 -8 -8 -9 -9 -8 -9 -9 -9 -9 -9 -10 -10 -10 -10 -10 -11 -11 -11 -11 -11 -12 -12 -12 -12 -13 -13 -13 -14 -14 -15 -15 -16 -16 -17 -18 -19 -19
-8 -8 -9 -9 -9 -9 -10 -10 -10 -10 -10 -10 -10 -10 -11 -11 -11 -12 -12 -12 -12 -12 -12 -12 -12 -12 -12 -13 -13 -14 -14 -14 -15 -15 -16 -16 -16 -17 -18 -19 -19 -19 -20
-10 -10 -10 -10 -10 -11 -11 -11 -11 -11 -11 -11 -11 -12 -12 -13 -13 -13 -13 -13 -12 -12 -13 -13 -13 -14 -14 -14 -15 -15 -15 -16 -16 -17 -17 -18 -18 -19 -19 -20 -20 -20 -21
-11 -11 -12 -12 -12 -12 -12 -12 -12 -12 -12 -13 -13 -14 -14 -14 -14 -13 -13 -13 -14 -14 -14 -14 -15 -15 -15 -15 -16 -16 -17 -17 -18 -18 -18 -19 -19 -20 -20 -21 -21 -21 -21
-13 -13 -13 -13 -13 -13 -13 -13 -13 -13 -14 -14 -15 -15 -14 -14 -14 -14 -14 -14 -15 -15 -15 -15 -16 -16 -16 -17 -17 -17 -18 -18 -18 -19 -19 -20 -20 -20 -21 -21 -22 -22 -22
-14 -14 -14 -14 -14 -14 -14 -14 -15 -15 -15 -15 -15 -15 -15 -14 -15 -15 -15 -15 -15 -16 -16 -16 -17 -17 -17 -18 -18 -18 -19 -19 -20 -20 -20 -21 -21 -21 -22 -22 -22 -22 -22

GFSGL_700_temp_105.txt.gz
Temp
6 6 5 5 5 6 5 5 3 2 3 3 3 2 0 1 1 1 1 1 1 0 0 -1 -1 -2 -2 -3 -2 -2 -2 -2 -2 -2 -2 -2 -2 -2 -2 -2 -2 -2 -2
6 5 5 5 5 5 5 5 3 2 2 2 2 2 1 1 1 1 1 0 0 0 0 -1 -1 -2 -2 -3 -2 -2 -2 -2 -2 -1 -2 -2 -2 -2 -3 -3 -2 -2 -2
6 5 5 5 5 5 5 5 4 3 2 2 2 2 1 1 1 1 1 1 1 0 -1 -1 -1 -2 -2 -3 -2 -2 -2 -2 -2 -2 -1 -2 -1 -2 -2 -2 -2 -2 -2
5 5 5 5 5 4 5 4 4 3 3 2 2 3 3 2 2 -0 -0 0 0 -1 -1 -1 -2 -2 -2 -2 -2 -2 -2 -2 -2 -2 -1 -1 -1 -2 -2 -2 -2 -2 -2
5 4 4 4 5 5 5 4 4 4 3 3 3 3 3 2 1 2 -1 -1 -1 -1 -1 -1 -1 -2 -2 -2 -2 -2 -2 -2 -2 -2 -2 -1 -1 -1 -2 -2 -2 -2 -2
4 4 4 4 4 4 4 4 4 4 4 4 3 3 3 2 1 1 0 -1 -1 -1 -1 -1 -1 -1 -2 -2 -2 -2 -2 -2 -2 -2 -2 -2 -2 -1 -2 -1 -2 -2 -2
3 3 3 3 3 4 4 4 4 4 4 4 4 3 3 2 2 1 -0 -0 -1 -1 -1 -1 -2 -2 -2 -2 -2 -2 -2 -2 -2 -2 -2 -2 -1 -1 -2 -2 -2 -2 -2
2 2 2 3 2 3 3 3 3 3 3 3 3 3 3 3 2 1 1 0 0 -0 -0 -1 -1 -1 -2 -2 -2 -2 -2 -2 -2 -2 -2 -2 -2 -2 -2 -2 -2 -2 -2
1 1 1 1 2 2 2 2 2 3 3 3 3 3 3 3 2 2 1 1 2 1 0 -1 -1 -1 -1 -2 -2 -2 -2 -2 -2 -2 -2 -2 -2 -2 -2 -2 -2 -2 -2
0 0 1 1 1 1 2 2 3 3 2 3 3 3 3 3 3 3 2 2 2 1 1 -1 -1 -2 -2 -2 -2 -2 -2 -2 -2 -2 -2 -2 -2 -2 -2 -2 -2 -2 -2
1 1 2 2 2 2 2 3 3 3 3 2 2 2 2 2 2 2 1 1 1 1 2 1 0 -1 -1 -1 -2 -2 -2 -2 -2 -2 -2 -2 -2 -2 -2 -2 -3 -4 -6
2 2 2 2 3 3 3 3 3 3 3 2 2 2 2 2 2 2 1 1 1 0 -0 -1 -1 -1 -2 -1 -1 -1 -1 -1 -1 -2 -3 -3 -4 -4 -5 -5 -6 -7 -7
2 2 2 2 2 2 2 3 3 2 2 2 1 1 1 1 1 1 1 0 -0 -0 -0 -0 -1 -2 -2 -2 -2 -2 -2 -3 -3 -4 -5 -7 -7 -8 -8 -8 -8 -8 -7
1 1 1 1 2 2 2 2 2 2 1 1 1 1 -1 0 0 0 0 -1 -0 -0 -0 -1 -1 -1 -1 -2 -3 -4 -5 -6 -6 -7 -7 -8 -8 -8 -8 -8 -8 -9 -10
-0 -0 0 0 1 1 1 0 0 1 -1 -1 -2 -1 -1 -1 -0 -0 -1 -1 -2 -1 -1 -1 -2 -2 -3 -5 -6 -7 -8 -8 -8 -8 -8 -8 -8 -8 -9 -11 -11 -10 -10
-1 -1 -1 -1 -0 -0 -0 -0 -0 -1 -2 -2 -2 -1 -1 -1 -2 -2 -2 -2 -2 -2 -4 -5 -6 -6 -7 -8 -8 -8 -9 -9 -9 -9 -8 -9 -11 -11 -10 -10 -10 -10 -10
-2 -2 -1 -1 -1 -1 -1 -1 -1 -1 -1 -1 -2 -2 -2 -2 -2 -3 -5 -5 -5 -6 -6 -7 -8 -8 -8 -8 -8 -9 -9 -8 -8 -9 -11 -11 -10 -10 -10 -11 -11 -11 -12
-3 -3 -3 -3 -2 -2 -2 -2 -2 -2 -3 -3 -3 -3 -3 -3 -5 -6 -7 -7 -8 -8 -8 -8 -8 -8 -9 -9 -9 -9 -9 -10 -10 -10 -11 -11 -11 -11 -12 -12 -12 -13 -13
-5 -4 -4 -4 -4 -4 -4 -4 -4 -4 -5 -5 -5 -5 -6 -6 -7 -8 -8 -9 -9 -9 -9 -9 -9 -9 -9 -10 -10 -10 -10 -10 -11 -11 -11 -11 -12 -12 -12 -13 -14 -14 -15
-8 -6 -5 -6 -6 -6 -6 -6 -6 -6 -6 -7 -7 -7 -8 -8 -9 -9 -9 -9 -10 -10 -10 -10 -10 -10 -10 -11 -11 -11 -11 -11 -12 -12 -12 -13 -13 -13 -14 -14 -15 -15 -16
-8 -9 -8 -8 -8 -8 -8 -8 -8 -8 -8 -9 -9 -9 -9 -9 -9 -10 -10 -11 -11 -12 -12 -12 -12 -11 -11 -12 -12 -12 -12 -12 -13 -13 -13 -14 -14 -14 -15 -15 -16 -17 -17
-9 -9 -9 -9 -9 -9 -10 -10 -10 -10 -10 -10 -10 -10 -10 -10 -11 -11 -12 -13 -13 -12 -12 -12 -12 -12 -12 -12 -13 -13 -13 -13 -14 -14 -14 -15 -15 -16 -16 -16 -17 -18 -18
-10 -11 -11 -11 -11 -11 -11 -11 -11 -11 -11 -11 -11 -11 -12 -12 -13 -13 -13 -14 -13 -13 -13 -13 -13 -13 -13 -14 -14 -14 -14 -15 -15 -15 -16 -16 -16 -17 -17 -18 -18 -19 -19
-12 -12 -12 -12 -12 -12 -12 -12 -12 -12 -12 -13 -13 -13 -13 -14 -14 -14 -14 -13 -13 -13 -13 -14 -14 -14 -14 -15 -15 -15 -16 -16 -16 -17 -17 -17 -18 -18 -19 -19 -19 -20 -20
-13 -13 -13 -13 -13 -13 -13 -13 -13 -13 -14 -14 -14 -15 -15 -15 -15 -15 -14 -14 -15 -15 -15 -15 -15 -15 -16 -16 -16 -17 -17 -17 -17 -18 -18 -18 -19 -19 -19 -20 -20 -21 -21
-14 -14 -14 -14 -14 -14 -14 -14 -15 -15 -15 -16 -16 -16 -16 -15 -15 -15 -15 -16 -16 -16 -16 -16 -16 -16 -17 -17 -17 -18 -18 -18 -19 -19 -19 -19 -20 -20 -20 -21 -21 -21 -22

GFSGL_700_temp_108.txt.gz
Temp
7 8 7 6 5 5 6 5 5 5 4 3 3 3 2 2 1 1 1 2 1 1 1 0 -1 -1 -1 -3 -2 -3 -2 -3 -3 -2 -2 -2 -2 -2 -2 -2 -2 -2 -2
7 7 6 5 5 5 6 5 5 4 4 3 2 2 2 1 1 0 1 1 1 0 1 0 -1 -1 -1 -1 -1 -2 -2 -2 -3 -2 -2 -2 -2 -2 -2 -2 -2 -2 -2
6 6 6 5 5 5 5 5 5 4 4 3 2 2 1 0 0 1 1 1 0 0 0 0 -0 -1 -1 -1 -2 -1 -2 -2 -2 -2 -2 -2 -2 -2 -2 -2 -2 -2 -2
6 6 6 5 5 5 5 5 5 4 4 3 2 1 1 1 1 1 1 0 0 0 0 0 -0 -1 -1 -1 -2 -2 -2 -2 -2 -2 -2 -2 -2 -2 -2 -2 -2 -2 -2
6 6 5 4 4 5 5 5 5 5 4 3 3 2 2 2 1 1 1 1 -1 -1 -0 -0 -1 -1 -1 -2 -2 -2 -2 -2 -2 -2 -2 -2 -2 -2 -1 -2 -2 -1 -2
5 5 4 4 4 4 5 5 5 4 4 4 3 3 3 2 2 2 1 1 1 0 -0 -0 -1 -1 -1 -2 -2 -2 -3 -2 -2 -2 -2 -2 -2 -2 -1 -2 -2 -2 -2
4 4 3 3 4 4 4 4 4 4 4 4 3 3 3 3 3 2 2 2 2 0 -2 -1 -1 -1 -1 -1 -2 -2 -2 -2 -2 -2 -2 -2 -1 -2 -2 -1 -2 -2 -2
1 2 3 3 3 4 4 4 4 4 4 3 3 3 3 3 3 2 2 2 2 1 -0 -1 -2 -1 -1 -1 -2 -2 -2 -2 -2 -2 -2 -2 -2 -2 -2 -2 -2 -2 -2
2 2 2 3 3 3 3 3 2 3 3 3 3 3 3 3 3 3 2 2 1 0 0 -0 -1 -2 -1 -2 -2 -2 -2 -2 -2 -2 -2 -2 -2 -2 -2 -2 -2 -2 -2
1 1 1 1 1 1 2 2 2 2 2 3 3 3 3 3 2 2 1 1 1 0 -0 -1 -1 -1 -2 -2 -2 -2 -2 -2 -2 -2 -2 -2 -2 -2 -2 -2 -3 -3 -2
0 -0 -0 0 1 1 1 1 2 2 2 2 2 2 2 2 2 1 1 1 1 1 1 -0 -1 -1 -1 -1 -1 -1 -1 -1 -2 -2 -2 -2 -2 -2 -2 -2 -2 -3 -3
-1 -0 0 1 1 2 2 2 2 2 2 2 2 1 1 1 1 1 0 0 -0 -1 -1 -1 -1 -1 -1 -1 -1 -1 -1 -2 -2 -2 -2 -3 -3 -3 -4 -4 -5 -5 -6
-1 -0 0 1 1 1 1 2 2 2 2 2 2 1 1 1 1 1 0 1 1 1 0 -0 -0 -1 -1 -1 -1 -1 -2 -2 -2 -2 -3 -4 -5 -6 -7 -7 -8 -8 -8
-2 -1 0 0 1 1 1 1 1 1 1 1 1 0 -1 -0 0 1 0 -0 0 0 -0 -1 -1 -2 -1 -1 -2 -2 -2 -3 -4 -5 -6 -7 -8 -8 -8 -8 -8 -8 -8
-2 -1 -1 -1 -0 0 0 0 0 0 -0 -1 -1 -1 -1 -1 -0 -0 -1 -1 -1 -1 -1 -1 -1 -1 -2 -3 -4 -4 -5 -6 -7 -7 -8 -8 -8 -8 -8 -8 -8 -9 -9
-2 -2 -1 -1 -1 -1 -1 -1 -1 -1 -2 -2 -2 -3 -2 -1 -2 -2 -2 -2 -2 -2 -2 -3 -4 -4 -4 -5 -6 -7 -8 -8 -8 -8 -9 -9 -9 -8 -9 -9 -10 -10 -10
-3 -2 -2 -2 -1 -1 -1 -1 -1 -1 -1 -2 -2 -2 -2 -2 -2 -2 -2 -3 -3 -4 -5 -6 -6 -6 -7 -7 -7 -8 -8 -9 -9 -9 -9 -9 -9 -10 -10 -11 -11 -11 -11
-4 -4 -3 -3 -3 -2 -2 -2 -2 -2 -2 -3 -3 -3 -3 -3 -4 -4 -5 -5 -5 -6 -6 -7 -7 -7 -8 -8 -8 -9 -9 -10 -10 -10 -10 -10 -11 -11 -11 -11 -12 -12 -12
-5 -5 -4 -4 -4 -4 -4 -4 -4 -4 -4 -5 -5 -5 -5 -5 -5 -6 -6 -7 -7 -8 -8 -8 -9 -9 -9 -9 -9 -10 -11 -11 -11 -11 -11 -12 -12 -12 -12 -13 -13 -13 -14
-6 -5 -5 -5 -5 -5 -5 -5 -5 -5 -6 -6 -6 -6 -7 -7 -7 -8 -8 -8 -9 -9 -9 -9 -9 -10 -10 -11 -11 -11 -11 -11 -11 -12 -12 -12 -13 -13 -13 -14 -14 -15 -15
-7 -7 -8 -7 -7 -7 -7 -7 -7 -7 -7 -8 -8 -8 -8 -9 -9 -9 -9 -9 -10 -10 -10 -11 -11 -12 -12 -12 -12 -12 -12 -12 -12 -13 -13 -13 -14 -14 -15 -15 -15 -16 -16
-8 -8 -8 -9 -9 -9 -9 -9 -9 -9 -9 -9 -9 -10 -10 -10 -10 -10 -10 -11 -11 -12 -12 -12 -12 -12 -12 -12 -12 -13 -13 -13 -13 -14 -14 -14 -15 -15 -16 -16 -16 -17 -17
-9 -9 -10 -10 -10 -10 -11 -11 -11 -11 -11 -11 -11 -11 -11 -11 -11 -11 -12 -12 -13 -13 -13 -13 -13 -13 -13 -13 -14 -14 -14 -14 -15 -15 -15 -15 -16 -16 -16 -17 -17 -18 -18
-11 -11 -11 -11 -11 -12 -12 -12 -12 -12 -12 -12 -12 -12 -12 -13 -13 -13 -14 -14 -14 -14 -14 -14 -14 -14 -14 -14 -15 -15 -15 -15 -16 -16 -16 -17 -17 -17 -18 -18 -18 -19 -19
-13 -13 -13 -13 -13 -13 -13 -13 -13 -13 -13 -13 -14 -14 -14 -15 -15 -15 -15 -15 -15 -15 -15 -15 -15 -15 -15 -15 -16 -16 -16 -16 -17 -17 -17 -18 -18 -18 -18 -19 -19 -20 -20
-14 -14 -14 -14 -14 -14 -14 -14 -14 -15 -15 -15 -16 -16 -16 -16 -16 -16 -15 -15 -15 -15 -16 -16 -16 -16 -16 -17 -17 -17 -17 -18 -18 -18 -18 -19 -19 -19 -19 -20 -20 -20 -21

GFSGL_700_temp_111.txt.gz
Temp
6 6 6 7 7 7 7 6 6 6 6 6 5 4 4 3 3 1 2 1 1 1 1 -0 -0 -1 -1 -1 -1 -1 -2 -3 -3 -3 -1 -2 -2 -2 -2 -2 -2 -2 -2
5 5 6 6 7 6 6 6 6 6 6 5 4 4 4 3 3 2 1 1 1 1 1 0 -0 0 -1 -1 -1 -2 -2 -2 -2 -2 -3 -2 -2 -3 -2 -1 -2 -2 -2
4 5 5 5 6 6 6 6 6 6 6 5 4 4 4 3 3 2 1 1 1 1 0 0 -0 -0 -0 -1 -1 -1 -2 -2 -2 -2 -2 -2 -2 -2 -2 -2 -2 -2 -2
3 4 5 5 5 5 5 5 6 6 5 4 4 4 4 4 3 2 1 1 1 0 0 -0 -0 0 -0 -1 -1 -2 -1 -2 -2 -2 -2 -2 -2 -2 -2 -2 -2 -2 -2
1 3 5 4 4 4 5 6 6 6 5 4 4 4 4 3 3 3 1 1 1 1 0 0 -0 -0 -1 -1 -1 -1 -2 -2 -2 -2 -2 -2 -2 -2 -2 -2 -2 -2 -2
2 3 4 4 4 4 5 5 5 5 5 4 4 4 3 3 2 2 2 2 1 1 0 0 0 0 -0 -1 -1 -2 -2 -2 -2 -2 -2 -2 -2 -2 -1 -2 -2 -2 -2
1 2 3 4 4 4 4 5 5 5 4 4 4 3 3 3 2 2 2 1 1 1 1 0 -1 0 -0 -0 -1 -2 -2 -2 -2 -3 -2 -2 -2 -2 -2 -2 -2 -2 -2
2 1 2 4 3 3 4 4 4 4 4 4 4 3 3 3 3 2 2 2 2 1 1 1 -0 -1 -1 -1 -1 -1 -1 -2 -2 -2 -2 -2 -2 -2 -3 -3 -2 -2 -2
2 2 2 2 2 2 3 3 3 3 3 3 3 3 3 4 3 3 3 3 2 1 1 1 1 1 -1 -1 -1 -1 -2 -2 -2 -2 -2 -2 -2 -2 -2 -2 -2 -2 -2
1 2 1 1 1 2 3 3 3 3 3 3 3 3 3 4 3 3 3 3 3 2 2 2 1 0 -0 -2 -2 -2 -2 -2 -2 -2 -2 -2 -2 -2 -2 -2 -2 -2 -2
-0 1 1 1 0 1 1 1 1 2 2 3 3 3 3 3 3 3 3 3 2 2 1 -0 -1 -1 -1 -1 -2 -2 -2 -2 -2 -2 -2 -2 -2 -2 -2 -2 -2 -2 -3
-1 -0 -0 1 0 0 1 0 0 1 1 0 1 2 2 2 2 1 0 1 1 1 1 -0 -1 -1 -1 -1 -2 -2 -2 -2 -2 -2 -2 -2 -2 -2 -3 -3 -3 -4 -5
-1 -1 -1 -1 -1 -1 -0 -1 -1 -0 0 1 1 2 0 1 1 0 1 0 0 0 0 -0 -0 -1 -1 -1 -2 -2 -2 -2 -2 -2 -2 -2 -3 -4 -4 -5 -6 -6 -7
-3 -2 -2 -1 -1 -1 -1 -1 -0 0 0 0 1 0 -0 -0 -0 0 0 0 0 0 -0 -0 -1 -0 -1 -1 -1 -2 -1 -2 -2 -3 -3 -3 -4 -6 -7 -7 -7 -8 -8
-2 -2 -1 -0 0 -0 0 0 0 0 0 0 0 -1 -1 -1 -0 -1 -1 -1 -0 -0 -1 -1 -1 -1 -2 -2 -3 -3 -3 -3 -4 -5 -6 -6 -7 -7 -7 -8 -8 -8 -9
-4 -3 -2 -1 -0 -0 -0 -1 -1 -2 -2 -2 -2 -2 -1 -2 -1 -2 -2 -2 -2 -1 -2 -2 -2 -2 -3 -4 -5 -5 -5 -6 -7 -7 -7 -8 -8 -8 -9 -9 -9 -9 -9
-3 -3 -2 -1 -1 -1 -2 -1 -1 -2 -2 -2 -2 -2 -2 -2 -2 -2 -2 -2 -2 -2 -2 -3 -4 -5 -5 -6 -6 -7 -7 -7 -8 -8 -8 -8 -9 -9 -9 -9 -9 -10 -10
-4 -4 -4 -3 -3 -3 -3 -3 -3 -3 -2 -2 -3 -3 -3 -3 -3 -3 -3 -4 -4 -4 -5 -5 -6 -6 -7 -7 -8 -8 -8 -8 -8 -9 -9 -9 -10 -10 -10 -10 -10 -11 -11
-6 -6 -5 -5 -5 -4 -4 -4 -4 -4 -4 -4 -5 -5 -5 -5 -5 -5 -5 -6 -6 -7 -7 -7 -7 -7 -8 -8 -8 -9 -9 -9 -10 -10 -10 -10 -10 -11 -11 -11 -12 -12 -12
-6 -6 -6 -6 -6 -6 -6 -6 -6 -6 -6 -7 -7 -7 -7 -7 -7 -7 -8 -8 -8 -8 -8 -8 -9 -9 -9 -9 -10 -10 -11 -11 -11 -11 -11 -11 -12 -12 -12 -13 -13 -13 -14
-7 -7 -7 -7 -7 -7 -7 -7 -7 -7 -8 -8 -8 -8 -8 -9 -9 -9 -9 -9 -10 -10 -9 -10 -10 -10 -11 -11 -11 -11 -11 -11 -12 -12 -12 -12 -13 -13 -13 -14 -14 -14 -15
-8 -8 -8 -8 -8 -8 -8 -8 -8 -8 -8 -9 -9 -9 -10 -10 -10 -10 -10 -10 -10 -10 -11 -11 -11 -12 -12 -12 -12 -12 -12 -13 -13 -13 -13 -13 -14 -14 -14 -15 -15 -15 -16
-10 -10 -10 -10 -10 -10 -10 -10 -10 -10 -10 -10 -11 -11 -11 -11 -11 -11 -12 -12 -12 -12 -12 -13 -13 -13 -13 -13 -13 -13 -13 -14 -14 -14 -14 -14 -15 -15 -15 -16 -16 -17 -17
-12 -12 -12 -12 -12 -11 -11 -11 -11 -11 -11 -11 -12 -12 -12 -12 -13 -13 -13 -13 -13 -13 -13 -14 -14 -14 -14 -14 -14 -14 -14 -14 -15 -15 -15 -15 -16 -16 -17 -17 -17 -18 -18
-12 -13 -12 -12 -12 -13 -13 -13 -13 -13 -13 -13 -13 -13 -13 -14 -14 -14 -14 -14 -14 -14 -14 -14 -14 -14 -15 -15 -15 -15 -15 -15 -16 -16 -16 -17 -17 -17 -18 -18 -18 -19 -19
-13 -13 -13 -13 -14 -14 -14 -14 -14 -14 -14 -14 -14 -15 -15 -15 -15 -15 -15 -15 -15 -15 -15 -15 -15 -15 -15 -16 -16 -16 -16 -17 -17 -17 -18 -18 -18 -19 -19 -19 -19 -20 -20

GFSGL_700_temp_114.txt.gz
Temp
5 5 6 6 5 6 6 5 6 7 7 7 6 6 6 6 5 4 3 2 1 1 1 1 2 -0 -0 -1 -1 -1 -2 -2 -3 -2 -2 -2 -2 -2 -2 -2 -2 -1 -1
5 5 6 5 5 5 5 4 6 6 6 6 6 6 6 5 4 4 3 2 2 1 1 1 1 0 -0 -1 -1 -1 -1 -2 -2 -2 -2 -1 -1 -2 -2 -2 -2 -2 -2
5 4 5 5 5 5 4 2 6 5 5 6 6 6 6 6 4 4 3 2 2 1 1 1 1 0 0 -0 -1 -1 -1 -2 -2 -2 -2 -2 -2 -2 -2 -2 -2 -2 -2
3 3 3 4 4 4 2 4 5 4 4 5 6 5 5 5 4 4 3 2 2 1 0 1 0 0 0 -0 -1 -1 -1 -1 -1 -2 -2 -2 -2 -2 -2 -2 -2 -2 -2
1 1 1 3 4 4 2 4 3 3 4 4 5 5 5 5 4 4 3 2 1 1 1 1 0 -0 -1 -1 -1 -1 -1 -2 -2 -1 -2 -1 -2 -2 -2 -2 -3 -2 -2
1 1 1 2 1 2 2 2 3 3 4 4 4 4 4 4 4 3 3 2 1 0 1 1 0 -0 -0 -0 -1 -1 -1 -1 -2 -2 -2 -2 -2 -2 -2 -2 -3 -2 -2
1 1 2 1 2 2 2 2 3 3 4 3 4 4 4 4 4 3 3 2 2 1 1 0 -0 0 0 -0 -0 -1 -2 -2 -2 -2 -2 -2 -2 -3 -3 -3 -3 -2 -2
0 1 0 1 1 1 2 2 2 3 3 3 3 3 3 4 3 3 3 3 2 2 1 0 -1 -1 -0 -0 -1 -0 -1 -1 -2 -2 -2 -3 -3 -3 -3 -3 -3 -3 -2
-0 1 1 1 1 1 2 2 2 2 2 2 3 3 3 3 3 3 3 2 2 2 2 2 0 -1 -1 -1 -1 -1 -1 -2 -2 -2 -2 -2 -2 -2 -3 -2 -2 -2 -2
-1 -0 1 1 1 1 1 1 2 2 3 3 2 3 3 3 2 3 2 2 2 2 1 1 0 -1 -1 -2 -2 -2 -1 -1 -2 -2 -2 -2 -2 -2 -2 -2 -3 -3 -3
-2 -1 -0 1 1 1 1 1 1 2 2 2 2 3 3 2 2 2 2 2 2 2 2 2 1 -0 -2 -3 -3 -3 -3 -3 -2 -2 -3 -3 -3 -3 -3 -2 -2 -2 -2
-3 -2 -1 -1 0 0 0 -0 -0 1 1 1 2 2 2 2 2 2 2 2 1 1 1 1 1 -0 -1 -1 -2 -1 -1 -2 -2 -2 -2 -2 -2 -2 -2 -3 -3 -3 -3
-3 -3 -3 -2 -2 -0 0 -0 -1 -0 0 0 0 0 1 1 0 0 0 0 1 1 0 -0 -0 -0 -1 -1 -1 -1 -2 -2 -2 -2 -2 -2 -2 -3 -3 -3 -4 -4 -5
-5 -4 -3 -3 -2 -2 -1 -1 -0 -0 -1 -0 0 0 1 1 1 -1 0 0 0 0 -0 -0 -0 -1 -1 -1 -1 -1 -1 -2 -2 -2 -2 -2 -3 -4 -5 -5 -6 -6 -7
-4 -5 -5 -4 -4 -3 -2 -2 -2 -2 -1 -1 -1 -1 -0 -1 -1 -0 -1 -1 -1 -0 -2 -1 -1 -1 -1 -2 -2 -2 -2 -3 -3 -3 -4 -4 -5 -6 -6 -7 -7 -7 -8
-5 -4 -4 -4 -3 -3 -3 -2 -2 -2 -2 -2 -2 -2 -2 -2 -2 -2 -2 -2 -2 -2 -2 -2 -2 -2 -3 -3 -3 -3 -4 -5 -5 -5 -6 -6 -6 -7 -7 -8 -8 -8 -9
-5 -5 -5 -4 -3 -2 -2 -2 -2 -1 -2 -2 -2 -2 -2 -2 -2 -2 -2 -2 -2 -2 -2 -3 -3 -3 -3 -4 -4 -5 -5 -5 -6 -6 -7 -7 -7 -8 -8 -9 -9 -9 -9
-6 -6 -5 -5 -5 -4 -3 -2 -2 -1 -1 -2 -2 -2 -2 -2 -2 -2 -3 -3 -3 -3 -3 -3 -4 -5 -5 -6 -6 -6 -7 -7 -7 -8 -8 -8 -9 -9 -10 -10 -10 -10 -10
-7 -7 -6 -5 -5 -4 -4 -3 -3 -3 -3 -3 -3 -4 -3 -3 -4 -4 -4 -4 -5 -5 -5 -6 -6 -7 -7 -7 -7 -7 -8 -8 -8 -9 -9 -10 -10 -10 -10 -11 -11 -11 -11
-7 -7 -7 -6 -6 -6 -5 -5 -5 -5 -5 -5 -5 -5 -5 -5 -6 -6 -6 -6 -6 -6 -7 -7 -7 -8 -8 -8 -8 -9 -9 -10 -10 -10 -11 -11 -11 -11 -12 -12 -12 -12 -13
-8 -7 -7 -7 -7 -7 -7 -7 -7 -7 -7 -7 -7 -7 -8 -8 -8 -8 -8 -8 -8 -8 -9 -9 -9 -9 -9 -10 -10 -11 -11 -11 -11 -12 -12 -12 -12 -12 -12 -12 -13 -13 -14
-8 -8 -8 -8 -9 -8 -8 -8 -8 -8 -8 -8 -9 -9 -9 -10 -10 -10 -10 -10 -10 -10 -10 -11 -11 -11 -12 -12 -12 -12 -12 -12 -12 -12 -13 -13 -13 -13 -13 -14 -14 -14 -15
-10 -9 -9 -9 -10 -10 -10 -10 -10 -10 -10 -10 -10 -11 -11 -11 -11 -11 -11 -11 -12 -12 -12 -12 -12 -12 -13 -13 -13 -13 -13 -13 -13 -14 -14 -14 -14 -14 -15 -15 -15 -16 -16
-12 -12 -11 -11 -11 -11 -11 -11 -11 -11 -11 -11 -12 -12 -12 -12 -12 -12 -12 -12 -13 -13 -13 -13 -13 -13 -14 -14 -14 -14 -14 -14 -14 -15 -15 -15 -15 -15 -16 -16 -16 -17 -17
-13 -13 -13 -13 -13 -13 -13 -13 -13 -13 -13 -13 -13 -13 -13 -13 -13 -13 -14 -14 -14 -14 -14 -14 -14 -15 -15 -15 -15 -15 -15 -15 -16 -16 -16 -16 -16 -16 -17 -17 -17 -18 -18
-14 -14 -14 -14 -14 -14 -14 -14 -14 -14 -14 -14 -14 -14 -14 -14 -14 -14 -15 -15 -15 -15 -15 -15 -15 -15 -15 -15 -16 -16 -16 -16 -17 -17 -17 -17 -17 -17 -18 -18 -19 -19 -19

GFSGL_700_temp_117.txt.gz
Temp
3 4 4 5 5 5 5 5 5 5 6 7 6 6 6 5 5 6 5 4 4 3 2 2 1 2 0 0 -0 -0 -0 -1 -1 -1 -2 -3 -3 -2 -2 -1 -1 -1 -1
3 4 4 5 5 5 5 5 4 4 6 5 6 5 5 5 6 5 5 4 3 3 2 2 2 1 1 0 -0 -1 -1 -1 -1 -2 -2 -3 -3 -2 -2 -2 -2 -2 -2
3 4 4 4 5 3 3 4 3 3 5 4 4 4 4 5 6 5 4 4 3 2 2 1 2 1 1 1 0 -1 -1 -1 -1 -2 -2 -2 -2 -2 -2 -2 -2 -2 -2
3 3 3 3 3 2 1 3 3 3 3 3 4 4 4 5 5 4 4 3 3 2 1 1 1 1 1 0 0 -0 -1 -1 -1 -2 -2 -2 -2 -2 -2 -2 -2 -2 -2
3 3 2 2 1 1 2 2 2 2 3 3 3 3 4 5 4 4 3 3 3 2 0 1 1 0 -0 0 0 -0 -1 -1 -1 -1 -1 -2 -2 -2 -2 -2 -2 -2 -2
2 2 2 1 1 1 1 1 1 3 3 3 3 4 4 4 3 4 3 3 3 2 0 0 1 0 -0 -0 -1 -1 -1 -1 -1 -1 -1 -2 -2 -2 -2 -2 -2 -2 -2
1 2 2 1 0 1 1 0 2 2 2 1 2 3 3 3 3 3 3 3 3 2 0 1 0 1 -0 -0 -1 -1 -1 -1 -1 -1 -2 -1 -2 -2 -2 -2 -2 -2 -3
2 1 0 1 0 1 -0 0 2 2 2 2 2 2 2 3 3 3 3 3 3 2 2 2 1 -1 -1 -0 -0 -1 -2 -1 -2 -2 -2 -2 -2 -2 -2 -2 -3 -3 -3
1 -1 0 0 0 0 1 1 1 1 1 0 1 2 2 2 2 3 3 3 3 3 2 2 2 -1 -1 0 -1 -1 -1 -1 -1 -2 -2 -2 -2 -2 -2 -2 -3 -3 -2
-2 -1 -1 -0 0 0 1 1 1 1 1 -0 1 1 2 2 2 2 2 2 3 2 2 2 1 -1 -1 -1 -1 -1 -1 -1 -1 -2 -2 -1 -2 -2 -2 -2 -2 -2 -2
-4 -3 -1 -1 -1 0 0 0 0 1 0 1 1 1 1 1 2 2 2 2 2 2 2 1 0 -0 -1 -2 -2 -3 -2 -2 -2 -3 -2 -2 -2 -2 -2 -3 -3 -3 -3
-4 -3 -3 -2 -1 -0 -0 -0 0 -1 -0 -2 0 -0 -0 1 -0 0 1 1 1 2 1 1 0 -1 -1 -2 -3 -2 -3 -3 -2 -2 -2 -2 -2 -2 -2 -2 -2 -2 -3
-5 -4 -4 -3 -2 -1 -1 -0 -1 -1 -1 0 -0 -1 1 -1 -0 -0 0 0 1 1 1 0 -1 -1 -1 -2 -1 -1 -2 -2 -2 -2 -2 -2 -2 -2 -2 -2 -3 -3 -3
-4 -5 -4 -4 -3 -2 -1 -1 -1 -1 -2 -2 -2 -1 0 -0 0 -0 -0 -0 -1 -1 -0 -1 -1 -1 -1 -1 -2 -1 -2 -2 -2 -2 -2 -2 -2 -2 -3 -4 -4 -4 -5
-5 -5 -5 -4 -4 -3 -2 -2 -2 -2 -2 -3 -3 -1 -0 -0 -0 -0 -1 -1 -1 -1 -1 -1 -1 -1 -1 -1 -1 -1 -2 -2 -2 -2 -2 -3 -3 -4 -4 -5 -5 -6 -6
-4 -5 -5 -5 -4 -4 -3 -3 -2 -2 -2 -3 -3 -2 -1 -1 -1 -1 -1 -1 -1 -1 -2 -1 -1 -2 -2 -2 -2 -2 -3 -3 -3 -3 -4 -5 -5 -5 -6 -6 -7 -7 -7
-6 -5 -5 -5 -5 -5 -4 -4 -3 -3 -3 -3 -3 -3 -3 -2 -2 -2 -2 -2 -2 -3 -2 -2 -2 -3 -3 -3 -3 -4 -4 -5 -5 -6 -6 -6 -6 -7 -7 -7 -8 -8 -9
-6 -6 -6 -6 -6 -6 -6 -5 -5 -5 -5 -4 -3 -3 -3 -3 -3 -3 -3 -4 -4 -3 -3 -3 -4 -4 -4 -4 -5 -5 -6 -6 -6 -7 -7 -7 -8 -8 -8 -9 -9 -9 -10
-7 -7 -7 -6 -6 -6 -6 -5 -5 -5 -5 -5 -5 -5 -5 -5 -5 -5 -5 -5 -5 -4 -5 -5 -5 -5 -5 -6 -7 -7 -7 -8 -8 -8 -8 -9 -9 -9 -9 -10 -10 -10 -11
-7 -7 -8 -8 -8 -7 -7 -6 -6 -6 -6 -6 -6 -6 -6 -5 -5 -5 -6 -6 -5 -6 -6 -6 -6 -7 -7 -8 -8 -9 -9 -9 -9 -10 -10 -10 -10 -11 -11 -11 -11 -11 -12
-8 -8 -8 -8 -8 -8 -8 -8 -8 -8 -8 -7 -7 -7 -7 -7 -7 -7 -7 -7 -7 -7 -8 -8 -8 -8 -8 -9 -9 -10 -10 -10 -10 -11 -11 -11 -12 -12 -12 -12 -13 -13 -13
-9 -10 -10 -10 -10 -9 -9 -9 -9 -9 -9 -9 -9 -9 -9 -9 -9 -9 -9 -9 -9 -9 -9 -9 -9 -9 -10 -10 -11 -11 -11 -11 -12 -12 -12 -12 -13 -13 -13 -13 -13 -14 -14
-9 -10 -10 -10 -10 -10 -11 -11 -11 -10 -10 -10 -10 -10 -10 -10 -10 -10 -10 -10 -10 -10 -11 -11 -11 -11 -11 -12 -12 -12 -13 -13 -13 -13 -13 -13 -14 -14 -14 -14 -15 -15 -15
-11 -11 -11 -11 -11 -11 -11 -11 -11 -12 -12 -12 -12 -12 -12 -12 -12 -12 -12 -12 -12 -12 -13 -13 -13 -13 -13 -13 -13 -14 -14 -14 -14 -14 -14 -15 -15 -15 -15 -15 -16 -16 -16
-13 -13 -13 -13 -13 -13 -13 -13 -13 -13 -13 -13 -13 -13 -13 -13 -13 -13 -13 -13 -14 -14 -14 -14 -14 -14 -14 -14 -14 -15 -15 -15 -15 -15 -16 -16 -16 -16 -16 -16 -17 -17 -17
-14 -14 -14 -14 -14 -14 -14 -14 -14 -14 -14 -14 -14 -14 -14 -14 -14 -14 -15 -15 -15 -15 -15 -15 -15 -15 -15 -15 -15 -16 -16 -16 -16 -17 -17 -17 -17 -17 -17 -17 -18 -18 -19

GFSGL_700_temp_120.txt.gz
Temp
3 4 4 4 4 5 5 5 5 3 3 5 5 5 5 6 6 6 5 5 5 5 3 3 2 1 1 0 0 1 0 0 -0 -0 -1 -1 -1 -2 -2 -2 -1 -1 -1
4 4 4 3 3 4 5 4 4 3 3 4 5 5 3 5 6 5 5 5 5 4 3 2 1 1 1 1 1 0 -0 -0 -0 -1 -1 -1 -1 -2 -2 -3 -2 -3 -2
3 3 3 3 3 4 4 4 4 3 3 4 4 4 4 3 5 4 5 5 5 4 3 2 1 1 1 1 1 1 -0 -1 -1 -1 -1 -1 -1 -1 -2 -2 -2 -2 -2
3 3 3 3 3 4 4 3 1 2 1 4 4 3 3 4 4 4 4 5 5 4 3 1 1 1 1 1 0 1 -0 -1 -1 -1 -1 -1 -1 -1 -2 -2 -2 -2 -2
3 3 3 3 4 3 3 2 1 1 2 2 3 2 2 3 3 3 5 5 4 3 3 1 1 1 1 1 0 0 -0 -1 -1 -1 -1 -1 -1 -2 -1 -2 -2 -2 -2
2 2 3 3 3 3 2 -0 1 1 1 2 2 2 3 2 2 3 5 5 4 3 1 0 0 0 1 0 -0 -1 -1 -1 -1 -1 -1 -1 -2 -2 -2 -2 -2 -2 -2
2 2 2 3 3 2 1 0 1 0 1 2 2 1 2 2 2 4 5 4 4 3 2 0 0 0 1 0 -0 -1 -1 -1 -1 -1 -1 -1 -1 -1 -2 -2 -2 -2 -2
2 2 3 3 3 2 0 -1 -0 1 1 2 2 1 2 1 2 4 4 4 3 3 0 -0 -0 -1 0 0 -0 -0 -1 -1 -1 -1 -1 -1 -2 -2 -2 -2 -2 -2 -2
1 2 2 3 2 0 -0 -1 0 0 0 1 2 2 1 1 3 3 3 3 3 3 2 1 1 0 -1 -1 -0 -0 -1 -1 -1 -1 -1 -2 -2 -2 -2 -2 -2 -2 -3
-1 0 -0 -0 -1 -0 0 0 0 1 0 1 -0 0 1 1 2 2 2 2 3 2 2 2 1 2 -0 -2 -2 -1 -1 -1 -1 -1 -1 -2 -2 -2 -2 -2 -3 -2 -2
-3 -3 -2 -2 -2 -0 -0 -0 -0 -0 0 0 -1 0 0 1 1 1 2 2 2 2 2 2 1 1 -0 -1 -1 -2 -2 -2 -2 -2 -2 -2 -2 -2 -2 -1 -2 -3 -2
-4 -3 -4 -3 -1 -1 -1 -0 -1 0 -0 -0 -1 0 0 -0 -0 1 1 1 1 1 1 1 0 0 0 -1 -2 -3 -2 -3 -3 -2 -3 -3 -2 -2 -2 -2 -2 -2 -2
-4 -4 -4 -4 -3 -1 -1 -1 -1 0 0 -0 -0 -0 -0 -0 -0 -1 -1 0 1 1 1 0 -1 -1 -2 -2 -1 -1 -2 -2 -2 -2 -2 -2 -2 -2 -2 -2 -2 -2 -3
-4 -4 -4 -4 -4 -4 -3 -2 -0 -1 -1 -0 -1 -0 -1 -1 -1 -0 -2 -1 -0 -0 -1 -2 -2 -1 -1 -1 -1 -2 -2 -2 -2 -2 -2 -2 -2 -2 -2 -2 -3 -3 -3
-4 -5 -5 -5 -5 -5 -5 -3 -2 -1 -1 -1 -1 -1 -2 -2 -2 -1 -2 -2 -1 -1 -1 -1 -2 -1 -1 -1 -1 -2 -2 -2 -2 -2 -2 -2 -2 -2 -3 -3 -4 -4 -5
-5 -5 -5 -5 -5 -5 -5 -5 -4 -3 -2 -2 -2 -2 -2 -2 -2 -2 -1 -1 -1 -1 -1 -1 -2 -2 -2 -1 -2 -2 -2 -2 -2 -2 -2 -3 -3 -4 -4 -5 -6 -6 -6
-6 -5 -5 -5 -5 -5 -5 -5 -5 -4 -4 -3 -3 -3 -3 -3 -3 -2 -2 -3 -2 -2 -2 -3 -3 -3 -2 -2 -2 -2 -3 -3 -3 -4 -4 -4 -5 -5 -6 -6 -7 -7 -7
-6 -6 -6 -6 -6 -6 -5 -5 -6 -5 -5 -5 -4 -4 -4 -4 -4 -4 -4 -6 -5 -4 -3 -3 -4 -4 -4 -4 -4 -4 -4 -5 -5 -5 -6 -6 -6 -7 -7 -7 -8 -8 -9
-7 -7 -6 -6 -7 -7 -6 -6 -6 -5 -5 -5 -5 -5 -5 -5 -5 -5 -6 -7 -6 -4 -5 -5 -4 -4 -5 -5 -5 -6 -6 -6 -6 -7 -7 -7 -8 -8 -8 -9 -9 -10 -10
-8 -8 -8 -8 -8 -7 -7 -7 -7 -7 -7 -6 -6 -6 -6 -6 -6 -7 -7 -6 -6 -6 -6 -7 -7 -7 -7 -7 -7 -7 -8 -8 -8 -8 -8 -9 -9 -10 -10 -10 -11 -11 -11
-9 -9 -9 -9 -8 -9 -9 -9 -9 -8 -8 -8 -8 -8 -8 -8 -8 -8 -8 -8 -9 -8 -8 -8 -8 -9 -9 -9 -9 -9 -9 -9 -9 -10 -10 -10 -11 -11 -11 -11 -11 -12 -12
-10 -10 -10 -10 -10 -10 -10 -10 -10 -10 -9 -9 -10 -9 -9 -9 -9 -9 -9 -10 -10 -9 -10 -10 -10 -10 -10 -10 -10 -10 -10 -11 -11 -11 -11 -11 -12 -12 -12 -12 -13 -13 -13
-11 -11 -11 -11 -11 -11 -11 -11 -11 -11 -11 -11 -11 -11 -10 -11 -11 -11 -11 -11 -11 -11 -11 -11 -11 -11 -11 -11 -11 -11 -12 -12 -12 -12 -12 -13 -13 -13 -13 -14 -14 -14 -14
-12 -12 -12 -12 -12 -12 -12 -12 -12 -12 -12 -12 -12 -12 -12 -12 -12 -12 -12 -12 -12 -12 -12 -12 -12 -12 -12 -12 -12 -13 -13 -13 -13 -14 -14 -14 -14 -14 -14 -14 -15 -15 -15
-13 -13 -14 -14 -13 -13 -13 -13 -13 -13 -13 -13 -13 -13 -13 -13 -13 -13 -13 -13 -13 -13 -13 -13 -14 -14 -14 -14 -14 -14 -14 -15 -15 -15 -15 -15 -15 -15 -15 -16 -16 -16 -16
-15 -15 -15 -15 -15 -15 -15 -15 -15 -14 -14 -14 -14 -14 -14 -15 -15 -15 -15 -15 -15 -15 -15 -15 -15 -15 -15 -15 -15 -15 -15 -16 -16 -16 -16 -16 -16 -17 -17 -17 -17 -17 -18

GFSGL_700_temp_123.txt.gz
Temp
2 4 4 4 5 5 5 5 5 5 5 5 5 4 4 5 5 5 5 6 5 5 4 5 4 4 3 2 1 1 1 1 0 0 0 -0 -0 -1 -1 -1 -2 -2 -1
3 3 3 4 4 4 4 4 5 5 5 5 5 4 4 5 5 5 4 6 5 5 5 4 4 4 3 2 0 1 0 0 0 0 0 -0 -1 -1 -1 -2 -2 -2 -2
3 3 3 4 4 4 4 4 4 4 5 5 4 4 4 4 4 3 3 5 5 5 4 5 4 4 3 2 0 1 1 -0 0 -0 -0 -0 -1 -1 -1 -2 -2 -2 -2
3 3 4 4 4 4 4 4 4 4 4 4 4 4 4 4 3 2 2 3 4 4 4 5 4 4 3 2 0 1 1 1 0 -0 -1 -0 -1 -1 -1 -1 -2 -2 -2
3 3 4 3 4 4 3 4 4 4 4 4 4 4 3 3 3 2 2 3 3 4 4 5 4 4 2 1 1 1 0 0 0 -0 -1 -1 -1 -1 -1 -1 -2 -2 -2
2 3 3 3 4 4 4 4 4 3 2 1 1 1 1 2 2 3 3 2 3 4 4 4 4 3 1 0 -0 1 -0 -0 -0 -0 -1 -1 -1 -1 -1 -1 -2 -2 -2
1 1 2 3 3 4 4 4 3 2 1 -1 1 1 1 2 2 2 2 2 3 4 4 4 4 1 0 -0 0 0 -0 -0 -1 -1 -1 -1 -1 -1 -1 -1 -2 -2 -2
-0 1 1 2 2 3 4 4 3 1 -1 -0 0 0 0 1 2 2 2 2 3 4 4 4 4 1 1 -0 -0 -0 -0 -0 -1 -1 -1 -1 -1 -1 -2 -2 -2 -2 -2
-1 -1 -0 1 2 3 3 3 2 -0 -0 -0 -0 0 1 1 1 1 1 1 3 3 4 4 4 3 -1 0 0 -1 -0 -0 -1 -1 -1 -1 -1 -1 -2 -2 -2 -2 -2
-1 -1 -1 -1 0 1 2 2 -0 -0 -0 -0 -0 0 0 1 0 1 1 1 2 3 3 3 3 2 0 -1 -1 -0 -0 -1 -1 -1 -1 -1 -2 -2 -2 -2 -2 -2 -2
-2 -2 -2 -2 -2 -0 0 -2 -1 0 -0 0 -0 1 0 0 -0 0 0 1 2 2 3 2 2 2 1 -1 -2 -2 -1 -2 -2 -1 -1 -1 -2 -2 -2 -2 -2 -2 -3
-3 -3 -2 -2 -2 -2 -1 -1 -0 -0 -0 0 0 0 -0 0 -0 -0 0 1 1 1 2 2 2 2 2 -0 -2 -2 -2 -2 -2 -2 -2 -2 -2 -2 -2 -2 -2 -2 -3
-3 -3 -3 -3 -3 -3 -2 -1 -1 -1 -1 -0 -1 -0 -0 0 -1 -1 -0 0 1 1 1 1 1 0 -0 -1 -1 -2 -3 -2 -3 -3 -3 -3 -3 -3 -2 -2 -2 -3 -3
-4 -4 -4 -4 -4 -3 -4 -4 -2 -1 -1 -1 -1 -1 -1 -0 -0 -1 -0 -1 1 0 0 -1 -2 -2 -2 -2 -3 -3 -3 -2 -2 -2 -3 -3 -3 -2 -3 -3 -2 -2 -2
-4 -4 -5 -4 -5 -5 -5 -5 -5 -3 -2 -2 -1 -1 -1 -1 -1 -0 -1 -1 -2 -2 -1 -1 -2 -3 -2 -2 -2 -2 -3 -3 -2 -3 -3 -3 -2 -2 -3 -3 -3 -3 -3
-5 -5 -5 -5 -5 -5 -5 -6 -6 -5 -5 -4 -4 -2 -1 -1 -1 -1 -1 -2 -2 -2 -2 -2 -2 -2 -2 -2 -2 -2 -2 -2 -2 -2 -2 -2 -2 -3 -3 -3 -3 -4 -4
-6 -6 -6 -6 -6 -6 -6 -6 -6 -6 -6 -5 -4 -4 -4 -3 -3 -3 -2 -2 -2 -2 -2 -2 -2 -2 -2 -2 -2 -2 -2 -3 -3 -3 -3 -4 -4 -4 -4 -4 -5 -5 -6
-6 -7 -7 -7 -7 -7 -7 -6 -6 -6 -6 -6 -6 -5 -5 -5 -4 -4 -3 -3 -3 -3 -3 -4 -3 -3 -3 -3 -4 -4 -5 -5 -5 -5 -5 -5 -5 -6 -6 -6 -7 -7 -7
-7 -7 -8 -8 -8 -8 -8 -8 -7 -7 -7 -7 -7 -6 -6 -6 -6 -6 -5 -6 -5 -5 -5 -5 -5 -5 -5 -5 -6 -6 -6 -5 -6 -6 -6 -6 -7 -7 -7 -7 -8 -8 -8
-8 -8 -8 -8 -8 -8 -8 -8 -8 -8 -8 -8 -8 -7 -7 -7 -7 -7 -6 -6 -6 -6 -6 -6 -6 -6 -6 -6 -7 -7 -7 -7 -7 -7 -7 -8 -8 -9 -9 -9 -9 -10 -10
-9 -9 -9 -9 -9 -9 -9 -9 -9 -9 -8 -8 -8 -8 -8 -8 -8 -8 -7 -7 -7 -7 -7 -7 -7 -8 -8 -8 -8 -8 -8 -8 -8 -8 -9 -9 -10 -10 -10 -10 -11 -11 -11
-10 -10 -10 -10 -10 -10 -10 -10 -10 -10 -10 -9 -9 -9 -9 -9 -9 -9 -9 -9 -9 -9 -9 -9 -9 -9 -9 -9 -9 -9 -9 -9 -10 -10 -10 -11 -11 -11 -11 -12 -12 -12 -12
-12 -12 -12 -12 -11 -11 -11 -11 -11 -11 -11 -11 -11 -11 -10 -10 -10 -10 -10 -10 -10 -10 -10 -10 -10 -10 -10 -10 -10 -11 -11 -11 -11 -12 -12 -12 -12 -12 -13 -13 -13 -13 -14
-13 -13 -13 -13 -13 -13 -13 -12 -12 -12 -12 -12 -12 -12 -12 -11 -11 -11 -11 -11 -11 -11 -11 -12 -12 -12 -12 -12 -12 -12 -13 -13 -13 -13 -13 -13 -14 -14 -14 -14 -15 -15 -15
-14 -14 -14 -14 -14 -14 -14 -14 -13 -13 -13 -13 -13 -13 -13 -13 -13 -13 -13 -13 -13 -13 -13 -13 -13 -13 -13 -14 -14 -14 -14 -14 -14 -14 -15 -15 -15 -15 -15 -15 -16 -16 -16
-16 -16 -16 -15 -15 -15 -15 -15 -15 -15 -15 -15 -15 -15 -15 -15 -14 -14 -15 -15 -14 -14 -15 -15 -15 -15 -15 -15 -15 -15 -15 -15 -15 -16 -16 -16 -16 -16 -16 -17 -17 -17 -17

GFSGL_700_temp_129.txt.gz
Temp
4 3 3 2 3 3 3 3 3 3 4 4 4 4 4 4 4 4 4 5 5 5 5 4 3 3 4 5 3 4 4 4 3 4 3 2 2 1 1 1 -0 -0 -1
1 1 1 2 1 1 2 3 3 4 4 4 4 4 4 4 4 4 4 4 5 4 4 3 3 4 3 5 2 3 4 4 3 4 3 1 1 1 1 0 0 0 -1
1 1 2 2 2 3 2 4 4 4 3 4 4 5 5 5 5 4 4 5 4 4 3 2 3 2 2 2 2 2 4 3 3 3 2 2 1 1 0 0 0 -0 -1
1 1 -0 2 2 2 2 3 4 4 4 4 4 5 5 5 4 4 4 5 4 3 3 2 2 1 1 2 2 2 3 3 3 2 2 2 1 0 0 0 -0 0 -1
-2 0 1 2 2 2 3 3 4 4 4 4 4 5 5 4 4 4 4 4 4 3 2 1 1 1 1 1 1 2 2 2 3 2 1 1 1 0 0 0 0 -0 -0
0 1 2 2 2 3 3 3 4 4 4 4 4 5 5 4 4 4 4 4 3 2 2 1 1 1 2 1 2 1 3 2 3 2 -0 0 0 0 -0 0 -0 -0 -1
1 0 0 1 1 2 2 3 3 4 4 4 4 4 4 4 4 4 3 3 2 2 2 1 1 1 1 1 2 2 2 3 3 1 0 0 0 1 -0 -0 -0 -1 -1
-1 -1 -0 0 1 2 2 3 3 3 3 4 4 4 4 4 3 3 2 1 1 2 1 1 1 2 1 2 2 2 3 3 2 1 -0 -0 -0 -0 -1 -0 -1 -1 -2
-2 -2 -1 -0 -0 1 2 2 3 3 3 4 4 4 4 4 3 1 1 1 -0 0 -0 1 1 1 2 2 1 2 2 3 2 0 -0 -1 -0 -1 -1 -1 -1 -1 -2
-2 -1 -1 -1 -1 -0 1 2 3 3 3 4 3 3 3 3 2 1 -0 -0 0 1 0 1 1 2 0 1 1 2 2 2 -1 -0 -0 -0 -1 -1 -2 -1 -1 -1 -1
-3 -2 -2 -2 -2 -1 -1 0 1 2 3 3 3 1 1 0 -0 0 -1 -1 -0 0 0 2 0 1 0 1 1 2 1 -1 -1 -0 -0 -1 -1 -1 -1 -1 -1 -1 -1
-3 -3 -3 -3 -3 -3 -2 -1 -0 1 2 2 -0 -1 -1 -1 -1 -1 -1 -1 -1 -0 -0 0 1 1 0 1 2 -1 -1 -1 -1 -1 -1 -1 -1 -1 -1 -1 -2 -2 -2
-4 -4 -4 -3 -3 -3 -3 -3 -2 -1 -1 0 -1 -1 -2 -1 -1 -1 -0 -0 -0 1 0 -0 -0 -0 0 -1 -1 -2 -2 -2 -2 -0 -1 -1 -1 -1 -1 -1 -1 -2 -2
-5 -5 -4 -4 -4 -4 -4 -3 -3 -3 -3 -3 -3 -2 -2 -2 -1 -1 -0 -1 -0 -1 -0 -0 -0 -1 -1 -1 -2 -2 -2 -1 -1 -2 -2 -2 -1 -1 -2 -2 -2 -2 -2
-6 -5 -5 -5 -4 -4 -4 -4 -4 -3 -4 -4 -4 -3 -2 -2 -2 -1 -1 -1 -1 -1 -1 -1 -1 -1 -2 -2 -2 -2 -2 -2 -2 -2 -2 -2 -2 -3 -3 -2 -3 -3 -2
-7 -7 -7 -7 -6 -6 -6 -6 -5 -5 -5 -5 -6 -6 -5 -4 -3 -2 -2 -1 -1 -2 -2 -1 -1 -2 -2 -1 -2 -3 -3 -3 -3 -3 -3 -3 -3 -3 -3 -3 -3 -3 -3
-8 -8 -8 -8 -8 -7 -7 -7 -7 -6 -6 -6 -6 -6 -6 -6 -6 -5 -4 -3 -3 -2 -3 -3 -2 -2 -2 -2 -3 -2 -3 -2 -2 -2 -2 -3 -3 -3 -3 -3 -3 -3 -3
-9 -9 -9 -9 -8 -8 -8 -7 -8 -8 -7 -7 -6 -6 -7 -7 -7 -7 -6 -5 -5 -4 -4 -4 -3 -3 -3 -3 -2 -3 -2 -3 -3 -3 -3 -3 -3 -3 -3 -4 -4 -5 -5
-10 -10 -10 -9 -9 -9 -9 -8 -8 -8 -8 -7 -7 -7 -7 -7 -7 -7 -7 -7 -7 -6 -5 -5 -5 -4 -4 -4 -4 -4 -4 -3 -3 -3 -4 -4 -5 -5 -5 -6 -6 -6 -7
-11 -11 -11 -11 -11 -10 -10 -10 -9 -9 -9 -9 -8 -8 -8 -8 -8 -8 -7 -7 -8 -8 -8 -7 -7 -6 -6 -6 -6 -6 -6 -6 -6 -7 -7 -7 -7 -7 -7 -7 -7 -8 -8
-12 -12 -12 -12 -11 -11 -11 -11 -10 -10 -10 -10 -10 -9 -9 -9 -9 -9 -9 -8 -8 -8 -8 -8 -8 -8 -8 -8 -8 -8 -8 -8 -8 -8 -8 -8 -8 -8 -8 -8 -8 -9 -9
-14 -13 -13 -13 -13 -12 -12 -12 -12 -11 -11 -11 -11 -11 -10 -10 -10 -10 -10 -10 -9 -9 -9 -9 -9 -9 -9 -9 -9 -9 -9 -9 -9 -9 -9 -9 -9 -10 -10 -10 -11 -11 -11
-15 -15 -14 -14 -14 -14 -14 -13 -13 -13 -13 -12 -12 -12 -12 -12 -12 -12 -12 -11 -11 -11 -11 -11 -11 -10 -10 -10 -10 -10 -11 -11 -11 -12 -12 -12 -12 -12 -12 -12 -12 -12 -12
-17 -16 -16 -16 -16 -15 -15 -15 -15 -14 -14 -14 -14 -14 -13 -13 -13 -13 -13 -13 -13 -13 -13 -13 -12 -13 -13 -13 -13 -13 -13 -13 -13 -13 -13 -13 -13 -13 -13 -13 -13 -13 -14
-18 -18 -18 -17 -17 -17 -16 -16 -16 -16 -16 -15 -15 -15 -15 -15 -14 -14 -14 -14 -14 -14 -14 -14 -14 -14 -14 -14 -14 -14 -14 -14 -14 -14 -14 -14 -14 -14 -14 -14 -14 -15 -15
-19 -19 -19 -19 -19 -18 -18 -18 -18 -17 -17 -17 -17 -17 -17 -16 -16 -16 -16 -16 -16 -16 -16 -15 -15 -15 -15 -15 -15 -15 -15 -15 -15 -15 -15 -15 -15 -16 -16 -16 -16 -16 -16

GFSGL_700_temp_132.txt.gz
Temp
2 5 6 6 6 6 6 5 4 4 4 4 4 4 4 4 4 4 4 4 4 4 4 4 4 4 3 3 2 2 3 3 3 2 4 4 3 3 2 2 2 2 1
2 4 4 5 4 4 4 4 3 3 3 4 4 3 4 4 4 4 4 4 4 4 4 4 3 3 3 3 2 3 3 3 2 2 3 4 3 2 2 1 2 1 1
2 2 1 3 4 4 4 4 3 3 3 3 3 4 4 4 4 4 4 4 4 4 4 4 4 3 3 2 2 2 3 2 1 2 2 3 4 3 2 1 1 1 0
0 1 1 1 3 2 2 2 2 2 2 3 3 3 4 4 4 4 4 4 4 4 4 4 4 3 3 2 2 2 1 2 2 3 2 3 3 3 2 1 1 1 1
-1 -0 -0 0 1 1 1 1 2 2 3 3 3 4 4 4 4 5 4 4 4 4 4 4 4 3 3 2 2 1 1 2 2 2 2 3 4 3 2 1 0 0 0
-1 -1 -2 -1 -1 -0 1 2 2 3 3 3 4 4 4 5 5 4 4 4 4 4 4 4 4 4 3 2 2 1 2 2 2 2 2 2 3 2 1 0 0 0 1
-3 -3 -1 -0 0 1 2 2 2 2 3 3 4 4 5 5 4 4 4 5 4 4 4 4 4 3 2 2 1 2 1 2 2 1 2 2 3 2 0 -0 0 -0 -0
-3 -2 -2 -1 -0 0 1 1 2 2 3 4 4 4 5 4 5 5 5 4 4 4 3 3 3 3 2 2 1 1 1 2 2 2 2 2 2 1 0 -0 -0 -0 -0
-2 -2 -1 -1 -1 -0 -0 1 2 2 3 4 4 5 5 4 4 4 4 4 4 3 3 1 1 2 2 1 1 1 1 1 1 2 2 2 1 -0 0 -0 -0 -0 -0
-3 -2 -1 -1 -1 -1 -1 -0 1 2 3 3 4 4 5 5 4 4 4 3 3 2 1 1 1 1 0 0 1 1 1 1 1 1 2 1 0 0 -0 -0 -1 -0 -1
-3 -3 -2 -2 -2 -2 -2 -2 -1 0 1 2 3 3 4 3 3 3 3 2 1 0 1 1 1 -0 0 1 1 1 1 1 1 1 0 -0 0 0 -1 -0 -1 -1 -1
-4 -3 -3 -3 -3 -4 -4 -3 -2 -2 -1 0 1 2 3 2 1 1 1 -0 -0 -0 0 -0 -0 -0 0 0 0 1 0 1 0 0 -1 -1 -1 -1 -1 -1 -1 -1 -1
-5 -4 -4 -4 -4 -4 -4 -4 -3 -3 -2 -1 -0 0 1 1 -1 -1 -1 -1 -1 -0 -0 -0 -0 -0 -0 0 0 0 -0 0 -0 -0 -1 -1 -1 -0 -1 -1 -1 -1 -1
-5 -5 -5 -4 -5 -4 -4 -4 -4 -3 -3 -2 -2 -2 -2 -2 -2 -2 -1 -1 -1 -1 -0 -0 -1 -0 -0 -0 0 -0 -1 -1 -0 -0 -0 -1 -1 -1 -1 -1 -1 -1 -2
-6 -6 -5 -5 -5 -5 -5 -4 -4 -4 -4 -4 -3 -3 -3 -3 -3 -2 -1 -1 -1 -1 -0 -0 -0 -1 -0 -0 -1 -1 -1 -1 -1 -2 -2 -1 -1 -1 -1 -1 -2 -1 -2
-7 -7 -6 -6 -6 -6 -5 -5 -6 -6 -6 -5 -6 -6 -5 -5 -4 -4 -4 -3 -2 -1 -1 -1 -1 -1 -1 -1 -1 -1 -1 -1 -1 -2 -1 -1 -1 -1 -2 -2 -2 -2 -2
-8 -8 -8 -7 -7 -7 -7 -7 -7 -7 -7 -7 -7 -6 -6 -6 -5 -6 -6 -6 -4 -3 -3 -2 -2 -2 -2 -1 -2 -2 -2 -2 -1 -2 -2 -2 -2 -2 -2 -2 -3 -2 -2
-9 -9 -9 -8 -8 -8 -9 -9 -8 -8 -8 -8 -8 -7 -7 -7 -6 -6 -6 -7 -7 -6 -5 -4 -4 -3 -3 -2 -2 -2 -2 -2 -2 -2 -2 -2 -3 -3 -2 -3 -3 -3 -3
-10 -10 -9 -10 -10 -10 -10 -10 -10 -10 -9 -9 -9 -9 -9 -7 -6 -8 -7 -7 -7 -8 -7 -7 -6 -5 -4 -4 -4 -3 -3 -3 -3 -3 -3 -3 -3 -3 -3 -3 -4 -4 -5
-12 -12 -12 -11 -11 -11 -11 -11 -11 -11 -11 -11 -10 -10 -9 -9 -9 -8 -8 -8 -8 -8 -8 -8 -8 -8 -7 -6 -6 -6 -6 -6 -6 -6 -6 -6 -6 -6 -6 -7 -7 -7 -7
-14 -13 -13 -13 -13 -13 -12 -13 -12 -12 -12 -12 -11 -11 -10 -10 -10 -10 -10 -9 -9 -9 -9 -9 -9 -9 -9 -9 -9 -8 -8 -8 -8 -8 -8 -8 -8 -8 -8 -8 -8 -9 -8
-15 -15 -15 -15 -14 -14 -14 -14 -14 -14 -13 -13 -13 -12 -12 -12 -11 -11 -11 -10 -10 -10 -10 -10 -10 -10 -10 -10 -10 -10 -10 -10 -10 -10 -10 -9 -9 -9 -9 -9 -9 -9 -9
-17 -16 -16 -16 -16 -16 -15 -15 -15 -15 -15 -14 -14 -14 -13 -13 -13 -13 -12 -12 -11 -11 -11 -11 -10 -10 -10 -10 -10 -10 -10 -10 -10 -10 -10 -10 -10 -10 -10 -10 -11 -12 -13
-18 -18 -18 -17 -17 -17 -17 -17 -16 -16 -16 -16 -15 -15 -15 -15 -15 -14 -14 -14 -13 -13 -13 -12 -13 -13 -13 -12 -12 -11 -11 -12 -12 -12 -12 -12 -12 -12 -13 -13 -13 -13 -13
-18 -18 -18 -18 -18 -18 -18 -18 -18 -18 -17 -17 -17 -17 -16 -16 -16 -16 -16 -15 -15 -15 -14 -14 -14 -14 -14 -14 -14 -14 -14 -14 -14 -14 -14 -14 -14 -15 -15 -15 -15 -14 -14
-18 -19 -19 -19 -19 -19 -19 -19 -19 -19 -19 -19 -18 -18 -18 -18 -17 -17 -17 -17 -17 -17 -16 -16 -16 -16 -16 -15 -15 -15 -15 -15 -15 -15 -15 -15 -15 -15 -15 -15 -15 -15 -15